Dewpoint
56 56 56 56 56 56 56 56 56 56 56 56 56 56 56 56 57 56 56 56 56 56 56 56 56 56 56 56 57 57 57 54 52 51 48 49 53 68 69 70 66 67 71 48 44 48 45 43 44 49 54 58 57 54 54 54 54 56 59 58 56 58 57 58 58 60 65 60 63 64 65 64 62 63 66 64 62 63 51 50 51 52 54 56 57 58 58 58
56 56 56 56 56 56 56 56 56 56 56 56 56 56 56 56 56 56 56 56 56 55 55 55 56 56 56 56 57 57 56 54 52 51 48 52 65 64 66 71 68 72 64 40 42 44 46 42 43 48 54 54 54 52 54 52 51 57 60 58 55 60 59 61 61 62 63 61 65 66 67 65 65 65 65 62 60 54 51 48 50 54 55 57 57 57 57 57
56 56 56 56 56 56 56 55 55 56 56 56 56 56 56 56 56 56 56 56 56 56 56 55 55 55 56 56 57 58 55 52 51 49 50 64 63 65 68 69 68 71 38 34 39 42 45 47 47 50 51 48 49 50 52 51 54 62 59 56 56 61 61 63 64 65 66 66 65 64 64 63 63 64 67 61 59 62 50 47 53 54 54 55 56 56 57 58
56 56 56 56 56 56 56 57 57 57 56 56 56 56 56 56 56 56 56 56 56 56 56 56 56 56 56 57 57 56 54 52 48 44 49 72 67 64 68 67 70 67 37 31 35 40 43 48 50 46 42 44 46 50 50 51 56 63 62 58 59 62 61 64 65 65 66 67 66 64 65 64 64 63 64 62 58 58 50 52 53 53 54 54 55 56 57 58
56 56 56 56 56 56 56 56 56 56 56 56 56 56 56 56 56 56 56 56 56 56 56 56 56 56 56 56 58 55 52 47 42 46 60 70 70 66 67 67 73 47 33 26 28 32 36 39 47 44 42 42 45 48 49 49 57 60 63 61 61 62 61 64 65 66 66 69 67 64 63 63 64 62 62 61 57 56 51 52 53 54 54 54 55 56 56 57
56 56 56 56 56 56 56 56 56 56 56 56 56 56 56 56 56 56 56 56 56 56 56 56 56 56 57 57 56 53 47 19 27 43 62 70 68 67 67 67 69 44 25 22 25 32 37 44 46 42 41 43 44 46 48 48 60 61 63 61 62 62 62 64 65 65 66 65 66 63 63 64 61 62 63 63 61 62 51 52 53 54 54 55 55 56 56 57
56 56 56 56 56 56 56 56 56 56 56 56 56 55 55 55 55 55 55 55 56 56 56 56 56 56 57 57 55 52 47 42 38 46 72 70 68 67 72 71 66 48 29 21 23 31 41 44 43 40 40 42 44 47 47 50 60 62 62 62 63 64 63 65 65 67 67 65 64 65 66 63 62 57 61 62 62 62 52 52 53 54 54 55 55 55 56 56
56 56 56 56 56 56 56 56 56 56 56 56 56 56 55 55 55 55 55 55 55 56 55 56 56 57 57 54 50 49 48 43 41 54 72 71 65 65 59 48 42 34 30 26 28 34 42 44 40 40 38 38 41 45 50 59 59 61 61 64 64 65 65 66 66 66 66 66 66 66 64 61 63 61 60 59 58 53 52 52 52 53 54 54 55 55 55 55
56 56 56 56 56 56 56 56 56 56 56 56 56 56 55 55 55 55 55 55 55 56 56 56 56 57 57 54 48 44 37 40 49 55 66 60 52 55 36 33 33 26 28 31 34 37 44 42 38 38 35 36 38 35 46 56 59 61 63 63 64 64 66 65 66 66 67 67 67 67 64 64 65 62 59 59 60 54 52 51 52 53 53 54 55 55 55 55
56 56 56 56 56 56 56 56 56 56 55 55 55 55 55 54 54 55 55 55 56 56 56 56 56 56 54 51 47 39 34 47 51 57 57 50 44 40 32 23 27 25 26 32 38 40 43 42 35 36 36 35 35 35 42 48 57 62 63 65 64 65 66 67 65 66 67 66 67 63 63 64 65 63 54 60 55 52 52 51 52 52 52 53 54 54 54 53
56 56 56 56 56 56 56 56 56 56 56 56 55 55 55 55 55 55 55 55 55 55 56 56 56 56 52 49 45 42 32 35 52 53 47 43 39 33 27 20 25 24 26 33 39 42 45 44 37 30 28 30 35 44 60 60 59 62 63 64 64 66 66 66 66 66 69 66 66 63 63 65 65 64 56 55 54 56 53 51 51 52 52 53 53 53 53 53
55 56 56 55 55 55 55 56 56 56 56 55 55 55 55 55 54 54 55 55 56 56 56 57 56 54 54 51 46 41 39 31 26 42 39 32 29 23 18 18 24 21 25 31 39 44 45 41 35 29 25 37 35 44 59 61 60 61 62 61 63 65 64 65 64 66 68 64 66 67 62 60 60 59 60 56 54 54 52 51 51 51 52 52 52 52 54 52
55 56 55 56 55 55 55 55 55 55 55 55 54 54 54 54 54 54 55 55 55 56 56 57 57 54 52 45 44 46 42 38 28 42 36 32 23 20 16 17 26 23 23 30 37 42 40 37 34 29 27 24 23 40 56 61 60 60 61 62 61 60 60 63 66 67 66 65 67 67 53 55 57 61 62 54 55 52 51 51 50 50 51 51 51 52 52 52
55 55 55 55 55 55 55 55 55 55 55 55 55 55 55 55 55 55 55 55 56 56 57 57 55 54 51 48 45 40 31 27 22 23 37 33 27 22 17 17 26 30 26 26 32 36 35 33 32 29 26 23 22 33 47 59 60 60 60 60 57 56 56 63 64 65 63 66 67 65 54 56 58 61 62 54 55 51 50 50 49 50 50 50 51 52 51 52
55 55 55 55 55 55 55 55 55 54 55 54 54 54 55 55 56 56 56 55 56 56 57 58 56 53 51 46 43 39 64 31 16 23 34 31 26 23 18 19 26 32 30 27 30 34 33 31 30 27 23 26 28 33 44 55 57 58 53 55 58 54 57 62 65 65 61 64 67 65 55 55 56 57 63 56 55 55 51 50 49 49 49 50 51 51 51 51
55 55 55 55 55 55 55 55 55 55 54 54 54 54 55 56 57 56 56 56 56 57 57 55 54 51 47 44 32 42 23 12 8 20 34 33 26 23 18 20 27 32 32 30 31 32 31 31 26 26 23 24 31 36 42 45 55 55 53 54 54 58 58 59 63 65 65 64 66 63 57 56 55 57 61 56 57 55 51 49 49 49 50 50 50 51 51 51
55 55 55 55 55 55 55 55 55 55 54 54 54 55 55 56 57 57 57 57 56 57 54 50 44 52 47 38 45 32 20 13 18 26 34 34 30 28 19 21 26 29 30 30 31 32 35 34 28 27 24 24 32 40 40 39 45 51 53 53 58 54 57 56 61 63 65 63 62 61 59 59 55 55 59 57 60 57 50 49 49 49 50 50 51 51 51 50
55 55 55 55 55 55 54 55 55 54 54 54 54 54 53 56 58 57 58 57 56 54 53 51 49 46 42 45 38 33 24 22 27 34 36 35 37 35 30 26 27 27 28 28 32 32 30 27 24 22 24 26 30 34 38 38 40 47 52 53 55 56 57 56 57 60 64 62 60 59 60 62 57 56 57 58 61 56 52 50 51 50 50 50 51 51 50 50
55 55 55 55 55 54 54 55 54 54 54 54 54 55 56 57 56 52 48 51 49 53 48 49 48 39 23 29 38 33 17 33 39 34 30 30 33 33 31 29 27 25 26 30 31 31 29 26 24 25 21 25 31 36 39 39 40 51 55 53 54 54 56 56 58 61 62 59 59 58 57 60 60 55 57 59 58 54 54 52 53 52 51 50 50 50 50 50
55 55 55 55 55 55 54 54 54 54 53 52 50 52 53 54 52 50 52 50 45 41 33 32 46 37 33 30 24 35 38 37 34 31 29 26 25 26 28 28 26 26 28 27 28 28 30 23 23 20 19 22 30 36 40 40 41 53 52 52 54 54 56 58 60 62 62 59 57 57 58 58 58 61 64 63 62 56 54 52 54 53 52 50 50 50 50 51
55 55 55 55 55 55 54 54 54 53 53 51 50 49 39 38 36 27 30 43 47 46 41 38 34 39 33 25 33 32 33 32 31 28 27 26 25 25 23 24 21 22 24 25 23 23 21 23 19 18 18 19 23 33 38 39 36 49 52 52 52 54 53 58 59 61 63 60 56 58 58 58 59 63 64 64 62 56 52 53 53 53 52 51 50 49 50 53
55 55 55 55 54 54 54 54 53 53 53 51 51 42 37 35 37 39 32 27 28 37 44 41 36 26 23 21 25 28 31 25 26 28 31 26 25 21 23 22 21 20 21 20 19 18 17 16 15 15 17 18 20 24 32 35 36 48 49 52 53 55 59 59 59 60 62 61 56 56 58 58 60 62 65 64 64 63 63 64 58 56 52 53 51 49 51 52
55 55 55 55 54 54 53 53 53 52 51 50 49 46 43 41 38 35 33 29 28 29 29 40 35 19 15 19 24 26 22 21 23 27 28 27 22 18 23 21 21 19 18 16 13 15 14 13 14 15 16 18 18 21 24 29 33 34 48 48 48 55 53 54 60 61 60 60 57 56 57 58 61 63 64 65 66 65 66 67 65 63 63 54 52 50 51 52
55 55 55 54 54 53 53 53 52 52 51 48 44 40 37 37 37 34 29 27 27 29 29 31 31 19 13 13 22 24 19 19 24 26 32 26 23 16 16 15 13 15 14 13 12 11 12 12 13 14 15 22 23 23 24 27 30 32 44 49 51 54 52 52 57 59 59 60 59 57 58 58 60 59 60 64 67 67 65 65 63 63 64 63 54 53 53 53
55 54 54 54 54 53 52 52 48 46 47 48 44 41 39 38 39 34 30 31 31 30 31 25 23 17 12 15 21 22 20 17 24 29 30 26 25 16 14 12 10 9 9 10 10 10 10 11 12 13 14 17 24 25 24 27 29 29 34 52 53 54 54 56 58 56 56 56 59 56 50 51 58 59 58 60 63 64 65 63 63 62 61 62 54 53 53 56
54 54 54 54 53 53 52 50 48 46 40 37 39 41 43 40 39 40 35 34 30 27 25 18 6 7 19 11 22 18 20 16 21 28 30 27 33 25 21 18 11 6 5 6 7 9 9 11 11 12 14 15 19 23 26 28 28 25 44 52 53 52 55 57 57 55 52 51 55 58 50 48 57 57 59 60 61 63 66 63 62 61 62 61 56 54 51 54
54 54 53 53 53 52 46 44 51 47 37 35 34 33 32 34 52 39 36 33 33 18 12 3 3 15 22 12 14 20 13 16 23 29 32 32 27 29 25 19 10 12 8 5 14 4 8 9 10 12 12 13 17 22 26 28 26 33 50 51 51 53 56 57 56 53 52 58 58 58 56 50 50 56 59 61 60 61 63 63 62 61 62 60 57 55 52 53
54 53 53 53 52 52 50 51 48 42 33 31 30 31 33 43 42 40 39 30 12 13 8 12 16 25 22 15 15 16 27 30 23 29 32 28 29 27 25 23 15 11 12 10 4 9 7 7 10 14 15 16 21 27 27 31 28 44 49 50 50 53 54 54 54 52 54 53 51 55 56 51 50 55 60 61 59 60 61 62 61 61 61 62 56 56 53 53
54 53 53 53 52 52 52 51 50 46 38 31 34 32 34 42 36 35 38 28 30 20 19 13 27 21 18 13 11 14 26 30 38 30 32 28 28 27 24 24 22 19 13 12 5 5 7 7 12 16 19 20 25 27 30 30 31 44 46 49 51 53 53 53 51 51 51 50 48 52 55 48 48 55 57 60 58 58 60 62 61 61 61 61 57 56 55 55
54 52 52 52 51 51 51 51 50 48 45 45 44 40 37 37 38 36 32 30 20 11 11 17 17 14 15 15 13 16 17 28 36 31 27 26 25 25 25 25 22 17 15 13 11 10 6 21 28 16 17 23 29 30 30 30 30 36 47 45 48 48 52 50 50 49 48 46 47 51 53 49 47 54 55 56 57 58 59 62 63 61 61 60 59 56 57 57
53 52 52 52 50 50 49 48 49 50 50 50 47 41 36 38 37 36 28 23 10 12 18 14 9 10 10 13 12 17 19 27 25 23 21 22 20 22 22 19 22 20 20 16 11 10 8 10 17 19 30 28 30 30 30 29 28 25 24 32 29 48 47 47 48 50 43 42 49 52 53 51 44 49 55 57 58 58 59 61 62 62 60 59 61 59 57 57
51 51 52 51 51 52 47 38 48 46 44 45 43 38 36 37 40 34 31 25 13 16 12 14 11 10 9 13 12 17 19 23 26 25 21 17 20 17 18 19 25 25 20 19 11 11 8 8 17 22 35 26 29 29 28 28 27 25 25 29 32 36 35 34 42 43 39 43 51 55 54 52 48 52 54 56 57 58 59 61 62 63 60 59 59 60 59 58
51 51 51 51 52 51 51 50 50 49 48 46 41 40 36 36 33 34 31 25 21 20 16 13 13 11 11 13 14 18 19 25 26 25 25 15 15 15 16 17 20 20 21 15 13 8 9 9 20 21 25 29 29 25 26 26 26 24 26 31 29 31 33 32 34 36 45 49 54 54 55 52 53 52 56 56 57 58 59 60 62 63 60 58 59 60 60 59
50 51 51 52 51 51 51 52 51 51 47 41 40 36 38 35 33 40 23 9 13 15 9 11 12 12 12 12 17 18 16 22 26 25 25 21 14 15 13 15 18 18 17 23 12 10 14 11 12 19 19 25 25 25 24 22 24 22 22 24 32 33 38 34 37 36 41 45 50 54 50 50 50 53 57 59 57 58 60 61 62 63 64 60 60 63 64 58
50 51 51 51 52 52 51 51 51 50 47 41 38 39 35 35 32 18 12 11 10 9 6 8 14 17 21 18 19 17 17 24 25 23 24 25 17 17 14 13 15 16 16 16 24 29 8 14 19 21 22 24 23 25 25 23 23 24 22 23 24 28 40 41 48 43 43 45 46 49 49 55 54 59 60 59 58 59 61 61 62 63 66 64 62 62 63 60
50 54 51 50 51 50 52 52 51 49 44 39 38 38 37 35 26 24 15 12 9 5 7 6 12 16 21 20 19 20 20 21 21 21 23 24 22 18 17 14 14 17 19 19 31 20 18 14 17 20 23 23 23 24 23 26 27 25 24 22 23 26 36 42 46 47 46 43 41 51 51 55 57 59 59 59 61 62 63 61 62 64 66 66 64 63 62 63
53 57 50 48 47 45 50 51 50 48 43 39 39 37 33 27 24 24 24 9 10 11 5 12 15 12 19 31 44 20 19 20 21 20 24 23 22 21 18 15 15 18 19 22 26 22 19 17 17 18 19 21 22 22 21 23 25 24 22 19 24 24 34 40 42 45 42 40 44 47 47 50 51 49 60 59 58 60 60 62 62 64 65 64 65 64 63 62
52 51 47 44 46 43 49 51 46 44 41 39 38 40 34 28 27 12 11 10 10 9 11 13 24 10 21 24 32 32 22 16 20 19 22 21 36 23 20 21 15 15 19 21 23 25 22 21 21 19 20 21 20 18 17 18 20 19 20 20 24 28 28 42 39 38 39 40 41 45 48 51 51 51 56 56 56 57 59 61 61 62 63 63 64 64 63 64
53 49 36 35 41 43 47 49 43 45 41 38 36 36 31 26 27 16 11 9 10 7 12 12 12 22 11 12 36 30 30 20 20 18 24 31 25 26 22 21 16 16 18 20 17 26 28 22 21 24 20 18 17 16 20 17 19 19 21 16 21 23 32 37 39 41 40 43 42 43 45 44 52 52 57 56 56 57 58 62 61 62 63 63 64 64 62 64
48 39 31 36 36 42 46 44 39 43 40 35 37 33 31 24 24 18 13 11 9 12 16 13 12 13 14 13 14 16 29 25 14 19 23 31 20 27 23 21 20 20 18 19 17 21 26 27 26 23 19 17 18 18 15 18 16 15 15 16 19 32 32 36 40 37 43 42 39 42 42 46 54 59 57 57 57 59 59 62 62 63 64 65 65 65 66 63
44 44 41 34 36 42 43 39 37 35 35 32 31 30 29 28 26 11 11 11 10 15 13 12 14 15 17 15 14 15 18 16 15 18 19 18 20 31 24 20 22 20 18 18 18 23 30 27 27 22 16 15 16 16 15 13 12 11 11 15 17 21 32 28 34 35 36 40 40 41 42 50 56 60 60 60 61 62 64 63 63 64 64 65 66 66 66 66
45 36 38 35 39 40 38 35 32 33 28 30 27 21 22 35 11 11 11 16 9 9 10 10 16 15 17 19 17 22 20 16 18 20 19 21 21 25 23 21 21 22 19 23 20 22 27 34 31 22 20 17 17 18 16 15 15 11 8 12 17 19 23 31 26 34 33 37 43 46 46 49 59 61 61 61 61 60 62 63 63 63 64 65 65 67 67 67
37 30 36 41 39 36 36 31 34 35 28 23 24 24 25 18 9 10 12 8 8 11 11 13 12 15 18 21 15 15 18 20 16 20 16 23 21 19 20 19 19 17 20 24 23 25 41 34 26 25 28 24 21 19 17 15 13 11 9 9 12 13 14 25 34 34 35 40 42 47 43 48 59 61 60 62 62 60 61 62 64 63 64 66 65 65 66 67
42 39 39 41 44 37 35 29 30 37 30 28 26 28 21 12 11 11 13 12 12 11 8 12 14 10 15 18 16 17 23 28 21 16 21 22 26 19 19 18 18 20 26 28 35 26 32 33 28 28 26 25 23 25 19 13 15 13 8 9 7 7 11 10 34 35 33 38 41 38 41 46 57 61 61 62 61 61 62 64 64 63 64 66 67 65 66 67
47 40 37 38 39 42 29 26 27 35 34 26 24 25 24 16 11 18 17 10 16 11 14 13 13 13 13 17 17 20 20 17 30 15 18 19 26 21 17 17 22 17 25 36 53 24 31 39 36 26 27 25 29 29 28 26 14 10 10 6 11 7 9 22 13 36 27 40 42 42 45 52 57 59 59 59 59 60 61 63 65 65 64 65 66 66 65 67
42 41 36 40 34 33 34 30 24 22 31 31 28 26 19 15 14 15 17 10 14 11 11 10 10 12 12 18 20 22 19 18 21 26 29 22 20 21 20 18 19 27 45 49 49 28 37 36 35 37 34 29 31 36 31 32 25 13 7 6 6 8 8 14 31 35 29 43 45 46 47 51 53 57 58 58 60 60 61 61 62 62 64 66 66 66 67 68
45 40 39 39 33 28 25 24 21 20 25 26 41 26 22 19 17 11 17 23 13 11 15 18 14 13 17 17 16 19 25 17 30 28 27 20 24 21 21 23 15 36 54 32 33 32 40 31 26 35 34 28 23 25 23 26 22 21 16 5 6 7 19 20 16 20 41 44 43 51 50 50 50 55 57 57 59 60 60 61 63 63 64 65 65 65 67 67
42 43 35 39 30 35 37 32 20 20 20 25 42 27 19 18 24 23 17 17 15 14 14 38 19 15 13 19 21 26 25 31 35 25 23 25 27 20 15 16 13 45 40 18 25 31 36 31 26 25 23 24 23 23 22 22 23 23 21 20 27 22 13 15 30 17 38 42 43 51 51 48 50 54 57 57 60 60 61 62 63 63 64 65 65 65 66 66
40 42 42 43 40 34 31 31 28 27 24 23 37 25 19 17 18 17 20 18 18 23 17 32 21 17 18 20 28 40 38 28 33 33 35 27 24 26 24 22 15 23 22 18 24 38 35 31 29 23 23 23 24 24 24 21 21 20 21 30 36 37 39 35 43 42 41 45 50 51 53 51 52 54 56 57 59 60 62 63 63 63 64 64 63 64 64 65
50 46 47 47 45 39 34 29 28 29 26 39 39 28 22 20 17 19 18 16 20 23 20 20 19 19 21 22 35 35 36 32 33 31 31 32 28 36 31 30 24 23 19 22 29 33 28 36 29 23 27 26 23 24 24 22 21 21 36 40 40 39 46 47 45 46 49 51 52 53 53 53 55 56 56 58 60 61 61 62 62 63 64 64 64 63 64 64
54 53 55 52 45 42 40 34 34 34 33 34 34 25 22 20 17 21 21 16 17 22 22 20 22 22 23 25 29 29 23 37 40 30 30 31 29 35 32 33 21 33 23 27 35 38 33 33 26 31 30 28 23 22 21 22 20 26 43 40 40 43 44 46 46 47 48 50 51 52 51 52 55 58 59 60 60 60 60 61 62 61 62 63 64 64 63 63
54 55 56 55 49 50 39 33 32 29 31 35 29 27 25 24 21 16 33 23 20 12 18 16 17 27 30 32 29 25 22 22 21 28 31 21 22 22 23 24 20 31 32 32 32 31 35 31 29 33 28 29 26 23 21 22 24 36 39 41 42 45 47 49 49 49 48 45 47 50 51 56 58 59 58 58 58 59 60 60 61 61 62 63 65 65 65 65